| time (UTC) | temp F | wind direction | speed MPH | gust MPH | rain 1hr in | rain 24hr in | rain mn in | humidity % | barometer mb |
| 20260905161042 | 58 | 360 | 3.0 | 8.0 | 0.00 | 0.00 | 0.00 | 55 | 1019.0 |
| 20260905160544 | 59 | 360 | 4.0 | 8.0 | 0.00 | 0.00 | 0.00 | 55 | 1018.9 |
| 20260905155540 | 59 | 360 | 3.0 | 9.0 | 0.00 | 0.00 | 0.00 | 55 | 1019.1 |
| 20260905155039 | 59 | 360 | 4.0 | 10.0 | 0.00 | 0.00 | 0.00 | 55 | 1019.0 |
| 20260905154616 | 59 | 360 | 3.0 | 10.0 | 0.00 | 0.00 | 0.00 | 54 | 1019.1 |
| 20260905154043 | 59 | 360 | 4.0 | 10.0 | 0.00 | 0.00 | 0.00 | 54 | 1019.2 |
| 20260905153543 | 59 | 360 | 4.0 | 10.0 | 0.00 | 0.00 | 0.00 | 54 | 1019.2 |
| 20260905153107 | 60 | 360 | 5.0 | 10.0 | 0.00 | 0.00 | 0.00 | 54 | 1019.2 |
| 20260905152540 | 60 | 360 | 4.0 | 9.0 | 0.00 | 0.00 | 0.00 | 54 | 1019.4 |
| 20260905152043 | 60 | 360 | 4.0 | 9.0 | 0.00 | 0.00 | 0.00 | 53 | 1019.4 |
| 20260905151614 | 60 | 360 | 4.0 | 9.0 | 0.00 | 0.00 | 0.00 | 53 | 1019.5 |
| 20260905151043 | 60 | 360 | 5.0 | 12.0 | 0.00 | 0.00 | 0.00 | 53 | 1019.3 |
| 20260905150542 | 60 | 360 | 6.0 | 12.0 | 0.00 | 0.00 | 0.00 | 53 | 1019.3 |
| 20260905150059 | 60 | 360 | 5.0 | 10.0 | 0.00 | 0.00 | 0.00 | 53 | 1019.3 |
| 20260905145541 | 60 | 360 | 5.0 | 10.0 | 0.00 | 0.00 | 0.00 | 53 | 1019.3 |
| 20260905145041 | 60 | 360 | 5.0 | 10.0 | 0.00 | 0.00 | 0.00 | 53 | 1019.4 |
| 20260905144559 | 60 | 360 | 4.0 | 8.0 | 0.00 | 0.00 | 0.00 | 53 | 1019.5 |
| 20260905144042 | 60 | 360 | 3.0 | 9.0 | 0.00 | 0.00 | 0.00 | 53 | 1019.6 |
| 20260905143540 | 60 | 360 | 4.0 | 9.0 | 0.00 | 0.00 | 0.00 | 53 | 1019.7 |
| 20260905143100 | 60 | 360 | 4.0 | 9.0 | 0.00 | 0.00 | 0.00 | 52 | 1019.9 |
| 20260905142540 | 60 | 360 | 4.0 | 8.0 | 0.00 | 0.00 | 0.00 | 52 | 1020.0 |
| 20260905142044 | 60 | 360 | 3.0 | 8.0 | 0.00 | 0.00 | 0.00 | 52 | 1020.2 |
| 20260905141628 | 60 | 360 | 4.0 | 8.0 | 0.00 | 0.00 | 0.00 | 52 | 1020.4 |
| 20260905141041 | 60 | 360 | 4.0 | 8.0 | 0.00 | 0.00 | 0.00 | 52 | 1020.2 |
| 20260905140545 | 60 | 360 | 3.0 | 6.0 | 0.00 | 0.00 | 0.00 | 52 | 1020.3 |
| 20260905140059 | 60 | 360 | 4.0 | 6.0 | 0.00 | 0.00 | 0.00 | 51 | 1020.2 |
| 20260905135545 | 61 | 360 | 3.0 | 6.0 | 0.00 | 0.00 | 0.00 | 51 | 1020.2 |
| 20260905135040 | 61 | 360 | 3.0 | 8.0 | 0.00 | 0.00 | 0.00 | 51 | 1020.3 |
| 20260905134559 | 61 | 360 | 3.0 | 8.0 | 0.00 | 0.00 | 0.00 | 51 | 1020.4 |
| 20260905134042 | 61 | 360 | 3.0 | 6.0 | 0.00 | 0.00 | 0.00 | 50 | 1020.4 |
| 20260905133541 | 61 | 360 | 3.0 | 6.0 | 0.00 | 0.00 | 0.00 | 50 | 1020.5 |
| 20260905133057 | 61 | 360 | 3.0 | 5.0 | 0.00 | 0.00 | 0.00 | 50 | 1020.6 |
| 20260905132540 | 61 | 360 | 2.0 | 5.0 | 0.00 | 0.00 | 0.00 | 50 | 1020.6 |
| 20260905132043 | 61 | 360 | 2.0 | 5.0 | 0.00 | 0.00 | 0.00 | 50 | 1020.7 |
| 20260905131603 | 62 | 360 | 2.0 | 5.0 | 0.00 | 0.00 | 0.00 | 49 | 1020.7 |
| 20260905131044 | 62 | 360 | 2.0 | 5.0 | 0.00 | 0.00 | 0.00 | 48 | 1020.7 |
| 20260905130625 | 62 | 360 | 2.0 | 5.0 | 0.00 | 0.00 | 0.00 | 48 | 1020.7 |
| 20260905130059 | 62 | 360 | 2.0 | 3.0 | 0.00 | 0.00 | 0.00 | 48 | 1020.8 |
| 20260905125540 | 62 | 360 | 1.0 | 3.0 | 0.00 | 0.00 | 0.00 | 48 | 1020.6 |
| 20260905125040 | 62 | 0 | 0.0 | 0.0 | 0.00 | 0.00 | 0.00 | 48 | 1020.7 |
| 20260905124601 | 62 | 0 | 0.0 | 0.0 | 0.00 | 0.00 | 0.00 | 48 | 1020.6 |
| 20260905124041 | 62 | 0 | 0.0 | 2.0 | 0.00 | 0.00 | 0.00 | 48 | 1020.6 |
| 20260905123540 | 62 | 0 | 0.0 | 2.0 | 0.00 | 0.00 | 0.00 | 49 | 1020.6 |
| 20260905123104 | 62 | 0 | 0.0 | 2.0 | 0.00 | 0.00 | 0.00 | 49 | 1020.7 |
| 20260905122541 | 62 | 360 | 1.0 | 2.0 | 0.00 | 0.00 | 0.00 | 49 | 1020.6 |
| 20260905122043 | 62 | 360 | 0.0 | 2.0 | 0.00 | 0.00 | 0.00 | 48 | 1020.6 |
| 20260905121604 | 62 | 360 | 0.0 | 2.0 | 0.00 | 0.00 | 0.00 | 48 | 1020.6 |
| 20260905121043 | 62 | 360 | 0.0 | 2.0 | 0.00 | 0.00 | 0.00 | 48 | 1020.6 |
| 20260905120541 | 63 | 360 | 0.0 | 2.0 | 0.00 | 0.00 | 0.00 | 47 | 1020.6 |
| 20260905120131 | 63 | 360 | 0.0 | 2.0 | 0.00 | 0.00 | 0.00 | 46 | 1020.6 |
| 20260905115544 | 64 | 0 | 0.0 | 2.0 | 0.00 | 0.00 | 0.00 | 46 | 1020.6 |
| 20260905115043 | 64 | 360 | 1.0 | 2.0 | 0.00 | 0.00 | 0.00 | 45 | 1020.5 |
| 20260905114557 | 64 | 360 | 1.0 | 2.0 | 0.00 | 0.00 | 0.00 | 45 | 1020.6 |
| 20260905114039 | 64 | 360 | 1.0 | 3.0 | 0.00 | 0.00 | 0.00 | 45 | 1020.5 |
| 20260905113543 | 64 | 360 | 1.0 | 3.0 | 0.00 | 0.00 | 0.00 | 45 | 1020.4 |
| 20260905113056 | 64 | 360 | 1.0 | 3.0 | 0.00 | 0.00 | 0.00 | 45 | 1020.5 |
| 20260905112543 | 64 | 360 | 1.0 | 3.0 | 0.00 | 0.00 | 0.00 | 45 | 1020.5 |
| 20260905112043 | 64 | 360 | 1.0 | 2.0 | 0.00 | 0.00 | 0.00 | 44 | 1020.5 |
| 20260905111647 | 64 | 360 | 1.0 | 2.0 | 0.00 | 0.00 | 0.00 | 45 | 1020.5 |
| 20260905111042 | 64 | 360 | 1.0 | 2.0 | 0.00 | 0.00 | 0.00 | 44 | 1020.4 |
| 20260905110541 | 64 | 0 | 1.0 | 2.0 | 0.00 | 0.00 | 0.00 | 45 | 1020.5 |
| 20260905110057 | 64 | 360 | 1.0 | 2.0 | 0.00 | 0.00 | 0.00 | 45 | 1020.5 |
| 20260905105540 | 65 | 360 | 1.0 | 2.0 | 0.00 | 0.00 | 0.00 | 45 | 1020.5 |
| 20260905105039 | 65 | 0 | 0.0 | 0.0 | 0.00 | 0.00 | 0.00 | 45 | 1020.5 |
| 20260905104604 | 65 | 0 | 0.0 | 2.0 | 0.00 | 0.00 | 0.00 | 45 | 1020.4 |
| 20260905104046 | 66 | 0 | 0.0 | 2.0 | 0.00 | 0.00 | 0.00 | 44 | 1020.4 |
| 20260905103539 | 66 | 360 | 0.0 | 2.0 | 0.00 | 0.00 | 0.00 | 43 | 1020.4 |
| 20260905103054 | 66 | 360 | 1.0 | 2.0 | 0.00 | 0.00 | 0.00 | 43 | 1020.2 |
| 20260905102542 | 66 | 360 | 0.0 | 2.0 | 0.00 | 0.00 | 0.00 | 43 | 1020.2 |
| 20260905102040 | 66 | 360 | 0.0 | 2.0 | 0.00 | 0.00 | 0.00 | 42 | 1020.2 |
| 20260905101607 | 67 | 0 | 0.0 | 0.0 | 0.00 | 0.00 | 0.00 | 41 | 1020.2 |
| 20260905101040 | 67 | 0 | 0.0 | 1.0 | 0.00 | 0.00 | 0.00 | 41 | 1020.1 |
| 20260905100540 | 67 | 0 | 0.0 | 1.0 | 0.00 | 0.00 | 0.00 | 41 | 1020.1 |
| 20260905100106 | 67 | 360 | 0.0 | 2.0 | 0.00 | 0.00 | 0.00 | 40 | 1020.0 |
| 20260905095541 | 67 | 0 | 0.0 | 2.0 | 0.00 | 0.00 | 0.00 | 40 | 1019.9 |
| 20260905095041 | 68 | 360 | 0.0 | 2.0 | 0.00 | 0.00 | 0.00 | 39 | 1019.8 |
| 20260905094601 | 68 | 0 | 0.0 | 2.0 | 0.00 | 0.00 | 0.00 | 39 | 1019.8 |
| 20260905094044 | 68 | 360 | 0.0 | 2.0 | 0.00 | 0.00 | 0.00 | 38 | 1019.8 |
| 20260905093542 | 69 | 0 | 0.0 | 1.0 | 0.00 | 0.00 | 0.00 | 38 | 1019.8 |
| 20260905093102 | 69 | 0 | 0.0 | 2.0 | 0.00 | 0.00 | 0.00 | 37 | 1019.7 |
| 20260905092545 | 70 | 0 | 0.0 | 2.0 | 0.00 | 0.00 | 0.00 | 36 | 1019.7 |
| 20260905092043 | 70 | 360 | 0.0 | 2.0 | 0.00 | 0.00 | 0.00 | 36 | 1019.5 |
| 20260905091601 | 71 | 360 | 0.0 | 3.0 | 0.00 | 0.00 | 0.00 | 35 | 1019.5 |
| 20260905091044 | 71 | 360 | 0.0 | 4.0 | 0.00 | 0.00 | 0.00 | 35 | 1019.4 |
| 20260905090542 | 71 | 80 | 2.0 | 4.0 | 0.00 | 0.00 | 0.00 | 34 | 1019.4 |
| 20260905090058 | 72 | 86 | 1.0 | 4.0 | 0.00 | 0.00 | 0.00 | 34 | 1019.4 |
| 20260905085541 | 72 | 97 | 2.0 | 5.0 | 0.00 | 0.00 | 0.00 | 34 | 1019.3 |
| 20260905085044 | 72 | 104 | 2.0 | 5.0 | 0.00 | 0.00 | 0.00 | 33 | 1019.4 |
| 20260905084605 | 72 | 98 | 2.0 | 5.0 | 0.00 | 0.00 | 0.00 | 33 | 1019.3 |
| 20260905084041 | 72 | 115 | 2.0 | 6.0 | 0.00 | 0.00 | 0.00 | 33 | 1019.4 |
| 20260905083546 | 72 | 128 | 1.0 | 6.0 | 0.00 | 0.00 | 0.00 | 33 | 1019.4 |
| 20260905083053 | 72 | 34 | 1.0 | 4.0 | 0.00 | 0.00 | 0.00 | 33 | 1019.4 |
| 20260905082543 | 72 | 122 | 1.0 | 6.0 | 0.00 | 0.00 | 0.00 | 33 | 1019.4 |
| 20260905082043 | 72 | 0 | 3.0 | 6.0 | 0.00 | 0.00 | 0.00 | 33 | 1019.5 |
| 20260905081558 | 73 | 126 | 2.0 | 7.0 | 0.00 | 0.00 | 0.00 | 33 | 1019.5 |
| 20260905081040 | 73 | 104 | 2.0 | 7.0 | 0.00 | 0.00 | 0.00 | 33 | 1019.4 |
| 20260905080540 | 73 | 0 | 0.0 | 6.0 | 0.00 | 0.00 | 0.00 | 33 | 1019.3 |
| 20260905080120 | 73 | 88 | 2.0 | 6.0 | 0.00 | 0.00 | 0.00 | 33 | 1019.3 |
| 20260905075543 | 74 | 43 | 2.0 | 8.0 | 0.00 | 0.00 | 0.00 | 32 | 1019.4 |
| 20260905075039 | 74 | 30 | 1.0 | 8.0 | 0.00 | 0.00 | 0.00 | 32 | 1019.4 |
| 20260905074603 | 74 | 9 | 3.0 | 8.0 | 0.00 | 0.00 | 0.00 | 33 | 1019.3 |
| 20260905074042 | 74 | 324 | 1.0 | 7.0 | 0.00 | 0.00 | 0.00 | 33 | 1019.4 |
| 20260905073541 | 74 | 9 | 3.0 | 7.0 | 0.00 | 0.00 | 0.00 | 33 | 1019.3 |
| 20260905073103 | 74 | 0 | 1.0 | 5.0 | 0.00 | 0.00 | 0.00 | 33 | 1019.4 |
| 20260905072543 | 74 | 14 | 1.0 | 5.0 | 0.00 | 0.00 | 0.00 | 33 | 1019.3 |
| 20260905072042 | 74 | 360 | 2.0 | 6.0 | 0.00 | 0.00 | 0.00 | 32 | 1019.5 |
| 20260905071604 | 74 | 115 | 3.0 | 6.0 | 0.00 | 0.00 | 0.00 | 32 | 1019.5 |
| 20260905071039 | 76 | 107 | 1.0 | 5.0 | 0.00 | 0.00 | 0.00 | 31 | 1019.3 |
| 20260905070540 | 76 | 0 | 1.0 | 4.0 | 0.00 | 0.00 | 0.00 | 31 | 1019.3 |
| 20260905070101 | 76 | 297 | 1.0 | 3.0 | 0.00 | 0.00 | 0.00 | 31 | 1019.4 |
| 20260905065541 | 76 | 128 | 0.0 | 4.0 | 0.00 | 0.00 | 0.00 | 32 | 1019.4 |
| 20260905065039 | 75 | 0 | 0.0 | 4.0 | 0.00 | 0.00 | 0.00 | 32 | 1019.5 |
| 20260905064558 | 76 | 235 | 1.0 | 4.0 | 0.00 | 0.00 | 0.00 | 31 | 1019.5 |
| 20260905064043 | 75 | 0 | 0.0 | 5.0 | 0.00 | 0.00 | 0.00 | 32 | 1019.5 |
| 20260905063541 | 76 | 257 | 2.0 | 6.0 | 0.00 | 0.00 | 0.00 | 32 | 1019.6 |
| 20260905063102 | 75 | 254 | 1.0 | 6.0 | 0.00 | 0.00 | 0.00 | 32 | 1019.7 |
| 20260905062542 | 75 | 260 | 1.0 | 4.0 | 0.00 | 0.00 | 0.00 | 31 | 1019.8 |
| 20260905062046 | 75 | 341 | 1.0 | 6.0 | 0.00 | 0.00 | 0.00 | 31 | 1019.9 |
| 20260905061601 | 75 | 327 | 1.0 | 6.0 | 0.00 | 0.00 | 0.00 | 32 | 1019.9 |
| 20260905061040 | 75 | 290 | 2.0 | 6.0 | 0.00 | 0.00 | 0.00 | 32 | 1020.0 |
| 20260905060540 | 75 | 254 | 2.0 | 6.0 | 0.00 | 0.00 | 0.00 | 32 | 1020.0 |
| 20260905060100 | 75 | 207 | 1.0 | 4.0 | 0.00 | 0.00 | 0.00 | 32 | 1020.1 |
| 20260905055545 | 74 | 169 | 0.0 | 4.0 | 0.00 | 0.00 | 0.00 | 34 | 1020.1 |
| 20260905055041 | 74 | 169 | 1.0 | 7.0 | 0.00 | 0.00 | 0.00 | 34 | 1020.1 |
| 20260905054604 | 74 | 198 | 3.0 | 7.0 | 0.00 | 0.00 | 0.00 | 33 | 1020.1 |
| 20260905054041 | 74 | 315 | 1.0 | 7.0 | 0.00 | 0.00 | 0.00 | 34 | 1020.1 |
| 20260905053543 | 73 | 0 | 1.0 | 7.0 | 0.00 | 0.00 | 0.00 | 35 | 1020.1 |
| 20260905053108 | 73 | 236 | 2.0 | 4.0 | 0.00 | 0.00 | 0.00 | 35 | 1020.1 |
| 20260905052542 | 73 | 0 | 1.0 | 4.0 | 0.00 | 0.00 | 0.00 | 35 | 1020.2 |
| 20260905052040 | 73 | 279 | 0.0 | 5.0 | 0.00 | 0.00 | 0.00 | 36 | 1020.3 |
| 20260905051601 | 73 | 0 | 0.0 | 5.0 | 0.00 | 0.00 | 0.00 | 35 | 1020.4 |
| 20260905051040 | 72 | 210 | 2.0 | 6.0 | 0.00 | 0.00 | 0.00 | 36 | 1020.4 |
| 20260905050540 | 72 | 0 | 2.0 | 6.0 | 0.00 | 0.00 | 0.00 | 36 | 1020.5 |
| 20260905050106 | 72 | 144 | 1.0 | 7.0 | 0.00 | 0.00 | 0.00 | 36 | 1020.7 |
| 20260905045540 | 72 | 171 | 3.0 | 7.0 | 0.00 | 0.00 | 0.00 | 36 | 1020.7 |
| 20260905045040 | 73 | 98 | 2.0 | 6.0 | 0.00 | 0.00 | 0.00 | 35 | 1020.8 |
| 20260905044559 | 73 | 360 | 1.0 | 5.0 | 0.00 | 0.00 | 0.00 | 36 | 1020.8 |
| 20260905044041 | 72 | 0 | 2.0 | 5.0 | 0.00 | 0.00 | 0.00 | 36 | 1020.9 |
| 20260905043543 | 72 | 360 | 1.0 | 6.0 | 0.00 | 0.00 | 0.00 | 37 | 1021.1 |
| 20260905043101 | 72 | 360 | 2.0 | 6.0 | 0.00 | 0.00 | 0.00 | 36 | 1021.1 |
| 20260905042543 | 73 | 241 | 1.0 | 7.0 | 0.00 | 0.00 | 0.00 | 36 | 1021.3 |
| 20260905042041 | 72 | 180 | 2.0 | 7.0 | 0.00 | 0.00 | 0.00 | 37 | 1021.4 |
| 20260905041605 | 71 | 179 | 3.0 | 7.0 | 0.00 | 0.00 | 0.00 | 38 | 1021.3 |
| 20260905041040 | 72 | 360 | 2.0 | 7.0 | 0.00 | 0.00 | 0.00 | 37 | 1021.5 |
| 20260905040540 | 71 | 0 | 1.0 | 6.0 | 0.00 | 0.00 | 0.00 | 39 | 1021.5 |
| 20260905040105 | 70 | 360 | 1.0 | 7.0 | 0.00 | 0.00 | 0.00 | 39 | 1021.6 |
| 20260905035545 | 71 | 360 | 3.0 | 7.0 | 0.00 | 0.00 | 0.00 | 39 | 1021.7 |
| 20260905035043 | 71 | 245 | 3.0 | 5.0 | 0.00 | 0.00 | 0.00 | 38 | 1021.8 |
| 20260905034618 | 70 | 0 | 2.0 | 8.0 | 0.00 | 0.00 | 0.00 | 40 | 1021.9 |
| 20260905034040 | 69 | 360 | 2.0 | 8.0 | 0.00 | 0.00 | 0.00 | 41 | 1022.0 |
| 20260905033542 | 70 | 83 | 3.0 | 8.0 | 0.00 | 0.00 | 0.00 | 40 | 1022.1 |
| 20260905033117 | 69 | 134 | 2.0 | 7.0 | 0.00 | 0.00 | 0.00 | 41 | 1022.1 |
| 20260905032542 | 69 | 57 | 2.0 | 8.0 | 0.00 | 0.00 | 0.00 | 40 | 1022.2 |
| 20260905032044 | 71 | 62 | 3.0 | 8.0 | 0.00 | 0.00 | 0.00 | 39 | 1022.4 |
| 20260905031612 | 71 | 22 | 1.0 | 5.0 | 0.00 | 0.00 | 0.00 | 40 | 1022.3 |
| 20260905031040 | 70 | 33 | 2.0 | 6.0 | 0.00 | 0.00 | 0.00 | 41 | 1022.5 |
| 20260905030542 | 69 | 43 | 1.0 | 6.0 | 0.00 | 0.00 | 0.00 | 43 | 1022.5 |
| 20260905030101 | 68 | 67 | 2.0 | 8.0 | 0.00 | 0.00 | 0.00 | 42 | 1022.6 |
| 20260905025542 | 68 | 81 | 2.0 | 8.0 | 0.00 | 0.00 | 0.00 | 43 | 1022.6 |
| 20260905025041 | 69 | 107 | 3.0 | 8.0 | 0.00 | 0.00 | 0.00 | 41 | 1022.7 |
| 20260905024556 | 69 | 36 | 0.0 | 6.0 | 0.00 | 0.00 | 0.00 | 42 | 1022.9 |
| 20260905024043 | 68 | 360 | 2.0 | 6.0 | 0.00 | 0.00 | 0.00 | 43 | 1022.9 |
| 20260905023542 | 67 | 325 | 1.0 | 9.0 | 0.00 | 0.00 | 0.00 | 45 | 1023.0 |
| 20260905023127 | 67 | 120 | 3.0 | 9.0 | 0.00 | 0.00 | 0.00 | 44 | 1023.0 |
| 20260905022542 | 67 | 119 | 2.0 | 8.0 | 0.00 | 0.00 | 0.00 | 44 | 1023.0 |
| 20260905022041 | 67 | 0 | 2.0 | 8.0 | 0.00 | 0.00 | 0.00 | 45 | 1023.1 |
| 20260905021600 | 67 | 124 | 1.0 | 6.0 | 0.00 | 0.00 | 0.00 | 44 | 1023.1 |
| 20260905021040 | 67 | 290 | 1.0 | 5.0 | 0.00 | 0.00 | 0.00 | 45 | 1023.2 |
| 20260905020540 | 66 | 0 | 2.0 | 8.0 | 0.00 | 0.00 | 0.00 | 45 | 1023.3 |
| 20260905020058 | 66 | 138 | 3.0 | 8.0 | 0.00 | 0.00 | 0.00 | 45 | 1023.4 |
| 20260905015542 | 67 | 360 | 1.0 | 5.0 | 0.00 | 0.00 | 0.00 | 45 | 1023.5 |
| 20260905015041 | 66 | 22 | 2.0 | 5.0 | 0.00 | 0.00 | 0.00 | 47 | 1023.5 |
| 20260905014557 | 65 | 229 | 1.0 | 10.0 | 0.00 | 0.00 | 0.00 | 48 | 1023.6 |
| 20260905014041 | 64 | 111 | 4.0 | 10.0 | 0.00 | 0.00 | 0.00 | 49 | 1023.7 |
| 20260905013540 | 64 | 121 | 1.0 | 9.0 | 0.00 | 0.00 | 0.00 | 49 | 1023.7 |
| 20260905013101 | 64 | 106 | 4.0 | 9.0 | 0.00 | 0.00 | 0.00 | 49 | 1023.8 |
| 20260905012541 | 64 | 145 | 1.0 | 7.0 | 0.00 | 0.00 | 0.00 | 50 | 1023.8 |
| 20260905012041 | 63 | 82 | 3.0 | 9.0 | 0.00 | 0.00 | 0.00 | 51 | 1023.9 |
| 20260905011601 | 63 | 88 | 2.0 | 9.0 | 0.00 | 0.00 | 0.00 | 51 | 1023.9 |
| 20260905011042 | 63 | 78 | 2.0 | 8.0 | 0.00 | 0.00 | 0.00 | 52 | 1024.0 |
| 20260905010545 | 62 | 121 | 3.0 | 10.0 | 0.00 | 0.00 | 0.00 | 52 | 1024.1 |
| 20260905010109 | 62 | 86 | 2.0 | 10.0 | 0.00 | 0.00 | 0.00 | 53 | 1024.1 |
| 20260905005540 | 61 | 360 | 5.0 | 10.0 | 0.00 | 0.00 | 0.00 | 53 | 1024.1 |
| 20260905005040 | 61 | 360 | 3.0 | 9.0 | 0.00 | 0.00 | 0.00 | 54 | 1024.1 |
| 20260905004620 | 61 | 360 | 3.0 | 9.0 | 0.00 | 0.00 | 0.00 | 54 | 1024.1 |
| 20260905004040 | 61 | 360 | 4.0 | 9.0 | 0.00 | 0.00 | 0.00 | 55 | 1024.1 |
| 20260905003541 | 60 | 360 | 4.0 | 9.0 | 0.00 | 0.00 | 0.00 | 55 | 1024.1 |
| 20260905003056 | 60 | 360 | 4.0 | 9.0 | 0.00 | 0.00 | 0.00 | 55 | 1024.1 |
| 20260905002540 | 60 | 360 | 4.0 | 6.0 | 0.00 | 0.00 | 0.00 | 57 | 1024.1 |
| 20260905002040 | 60 | 360 | 3.0 | 9.0 | 0.00 | 0.00 | 0.00 | 57 | 1024.0 |
| 20260905001604 | 60 | 360 | 3.0 | 10.0 | 0.00 | 0.00 | 0.00 | 58 | 1023.9 |
| 20260905001042 | 59 | 360 | 2.0 | 10.0 | 0.00 | 0.00 | 0.00 | 59 | 1023.9 |
| 20260905000542 | 59 | 360 | 4.0 | 10.0 | 0.00 | 0.00 | 0.00 | 59 | 1023.9 |
| 20260905000132 | 59 | 360 | 2.0 | 6.0 | 0.00 | 0.00 | 0.00 | 61 | 1023.9 |
| 20260904235540 | 58 | 360 | 3.0 | 6.0 | 0.00 | 0.00 | 0.00 | 62 | 1023.9 |
| 20260904235040 | 58 | 360 | 2.0 | 5.0 | 0.00 | 0.00 | 0.00 | 63 | 1023.9 |
| 20260904234600 | 58 | 360 | 2.0 | 5.0 | 0.00 | 0.00 | 0.00 | 63 | 1023.9 |
| 20260904234044 | 58 | 360 | 3.0 | 5.0 | 0.00 | 0.00 | 0.00 | 62 | 1023.9 |
| 20260904233543 | 58 | 360 | 2.0 | 5.0 | 0.00 | 0.00 | 0.00 | 64 | 1023.9 |
| 20260904233053 | 57 | 360 | 3.0 | 5.0 | 0.00 | 0.00 | 0.00 | 64 | 1023.8 |
| 20260904232543 | 57 | 360 | 2.0 | 5.0 | 0.00 | 0.00 | 0.00 | 64 | 1023.7 |
| 20260904232044 | 57 | 360 | 2.0 | 5.0 | 0.00 | 0.00 | 0.00 | 65 | 1023.8 |
| 20260904231600 | 57 | 360 | 2.0 | 5.0 | 0.00 | 0.00 | 0.00 | 65 | 1023.6 |
| 20260904231041 | 57 | 360 | 1.0 | 4.0 | 0.00 | 0.00 | 0.00 | 65 | 1023.5 |
| 20260904230543 | 57 | 0 | 1.0 | 4.0 | 0.00 | 0.00 | 0.00 | 66 | 1023.5 |
| 20260904230114 | 57 | 360 | 0.0 | 2.0 | 0.00 | 0.00 | 0.00 | 68 | 1023.6 |
| 20260904225539 | 56 | 0 | 0.0 | 2.0 | 0.00 | 0.00 | 0.00 | 70 | 1023.7 |
| 20260904225040 | 56 | 0 | 0.0 | 2.0 | 0.00 | 0.00 | 0.00 | 71 | 1023.5 |
| 20260904224600 | 55 | 0 | 0.0 | 2.0 | 0.00 | 0.00 | 0.00 | 73 | 1023.5 |
| 20260904224042 | 54 | 0 | 0.0 | 0.0 | 0.00 | 0.00 | 0.00 | 74 | 1023.4 |
| 20260904223541 | 53 | 0 | 0.0 | 0.0 | 0.00 | 0.00 | 0.00 | 76 | 1023.4 |
| 20260904223056 | 52 | 0 | 0.0 | 0.0 | 0.00 | 0.00 | 0.00 | 77 | 1023.2 |
| 20260904222546 | 52 | 0 | 0.0 | 0.0 | 0.00 | 0.00 | 0.00 | 79 | 1023.2 |
| 20260904222042 | 51 | 0 | 0.0 | 0.0 | 0.00 | 0.00 | 0.00 | 79 | 1023.0 |
| 20260904221602 | 50 | 0 | 0.0 | 0.0 | 0.00 | 0.00 | 0.00 | 80 | 1023.0 |
| 20260904221042 | 49 | 0 | 0.0 | 0.0 | 0.00 | 0.00 | 0.00 | 80 | 1022.9 |
| 20260904220546 | 49 | 0 | 0.0 | 0.0 | 0.00 | 0.00 | 0.00 | 80 | 1022.9 |
| 20260904215540 | 48 | 0 | 0.0 | 0.0 | 0.00 | 0.00 | 0.00 | 78 | 1022.8 |
| 20260904215039 | 48 | 0 | 0.0 | 0.0 | 0.00 | 0.00 | 0.00 | 78 | 1022.7 |
| 20260904214557 | 49 | 0 | 0.0 | 0.0 | 0.00 | 0.00 | 0.00 | 78 | 1022.5 |
| 20260904214039 | 49 | 0 | 0.0 | 0.0 | 0.00 | 0.00 | 0.00 | 78 | 1022.6 |
| 20260904213542 | 49 | 0 | 0.0 | 0.0 | 0.00 | 0.00 | 0.00 | 78 | 1022.5 |
| 20260904213102 | 49 | 0 | 0.0 | 0.0 | 0.00 | 0.00 | 0.00 | 78 | 1022.4 |
| 20260904212543 | 50 | 0 | 0.0 | 0.0 | 0.00 | 0.00 | 0.00 | 77 | 1022.3 |
| 20260904212039 | 50 | 0 | 0.0 | 0.0 | 0.00 | 0.00 | 0.00 | 77 | 1022.3 |
| 20260904211601 | 50 | 0 | 0.0 | 0.0 | 0.00 | 0.00 | 0.00 | 77 | 1022.2 |
| 20260904211142 | 50 | 0 | 0.0 | 0.0 | 0.00 | 0.00 | 0.00 | 77 | 1022.2 |
| 20260904210540 | 50 | 0 | 0.0 | 0.0 | 0.00 | 0.00 | 0.00 | 76 | 1022.2 |
| 20260904210058 | 50 | 0 | 0.0 | 0.0 | 0.00 | 0.00 | 0.00 | 76 | 1022.1 |
| 20260904205543 | 50 | 0 | 0.0 | 0.0 | 0.00 | 0.00 | 0.00 | 76 | 1022.1 |
| 20260904205042 | 50 | 0 | 0.0 | 0.0 | 0.00 | 0.00 | 0.00 | 76 | 1022.0 |
| 20260904204602 | 51 | 0 | 0.0 | 0.0 | 0.00 | 0.00 | 0.00 | 76 | 1022.0 |
| 20260904204042 | 51 | 0 | 0.0 | 0.0 | 0.00 | 0.00 | 0.00 | 75 | 1021.9 |
| 20260904203542 | 51 | 0 | 0.0 | 0.0 | 0.00 | 0.00 | 0.00 | 75 | 1021.9 |
| 20260904203053 | 51 | 0 | 0.0 | 1.0 | 0.00 | 0.00 | 0.00 | 75 | 1021.9 |
| 20260904202542 | 51 | 0 | 0.0 | 1.0 | 0.00 | 0.00 | 0.00 | 75 | 1021.6 |
| 20260904202042 | 51 | 0 | 0.0 | 0.0 | 0.00 | 0.00 | 0.00 | 75 | 1021.5 |
| 20260904201628 | 51 | 0 | 0.0 | 0.0 | 0.00 | 0.00 | 0.00 | 74 | 1021.6 |
| 20260904201040 | 51 | 0 | 0.0 | 2.0 | 0.00 | 0.00 | 0.00 | 74 | 1021.5 |
| 20260904200542 | 51 | 0 | 0.0 | 2.0 | 0.00 | 0.00 | 0.00 | 74 | 1021.3 |
| 20260904195543 | 51 | 0 | 0.0 | 3.0 | 0.00 | 0.00 | 0.00 | 73 | 1021.3 |
| 20260904195043 | 52 | 360 | 0.0 | 3.0 | 0.00 | 0.00 | 0.00 | 73 | 1021.1 |
| 20260904194557 | 52 | 0 | 0.0 | 1.0 | 0.00 | 0.00 | 0.00 | 72 | 1021.1 |
| 20260904194039 | 52 | 360 | 0.0 | 2.0 | 0.00 | 0.00 | 0.00 | 72 | 1021.1 |
| 20260904193542 | 52 | 0 | 0.0 | 2.0 | 0.00 | 0.00 | 0.00 | 71 | 1021.1 |
| 20260904193105 | 53 | 360 | 0.0 | 2.0 | 0.00 | 0.00 | 0.00 | 71 | 1021.0 |
| 20260904192541 | 53 | 360 | 0.0 | 2.0 | 0.00 | 0.00 | 0.00 | 70 | 1020.9 |
| 20260904192043 | 53 | 360 | 1.0 | 3.0 | 0.00 | 0.00 | 0.00 | 70 | 1020.8 |
| 20260904191602 | 54 | 360 | 1.0 | 4.0 | 0.00 | 0.00 | 0.00 | 70 | 1020.9 |
| 20260904191047 | 54 | 360 | 1.0 | 4.0 | 0.00 | 0.00 | 0.00 | 70 | 1020.9 |
| 20260904190546 | 54 | 360 | 2.0 | 5.0 | 0.00 | 0.00 | 0.00 | 69 | 1020.8 |
| 20260904185543 | 54 | 360 | 2.0 | 6.0 | 0.00 | 0.00 | 0.00 | 69 | 1020.6 |
| 20260904185039 | 55 | 360 | 3.0 | 6.0 | 0.00 | 0.00 | 0.00 | 69 | 1020.6 |
| 20260904184557 | 55 | 360 | 2.0 | 5.0 | 0.00 | 0.00 | 0.00 | 69 | 1020.5 |
| 20260904184039 | 55 | 360 | 2.0 | 5.0 | 0.00 | 0.00 | 0.00 | 69 | 1020.6 |
| 20260904183542 | 55 | 360 | 3.0 | 6.0 | 0.00 | 0.00 | 0.00 | 69 | 1020.6 |
| 20260904183117 | 55 | 360 | 3.0 | 6.0 | 0.00 | 0.00 | 0.00 | 68 | 1020.6 |
| 20260904182544 | 55 | 360 | 3.0 | 6.0 | 0.00 | 0.00 | 0.00 | 68 | 1020.4 |
| 20260904182042 | 55 | 360 | 3.0 | 9.0 | 0.00 | 0.00 | 0.00 | 68 | 1020.4 |
| 20260904181600 | 56 | 360 | 4.0 | 11.0 | 0.00 | 0.00 | 0.00 | 67 | 1020.4 |
| 20260904181040 | 56 | 360 | 5.0 | 11.0 | 0.00 | 0.00 | 0.00 | 67 | 1020.4 |
| 20260904180543 | 56 | 360 | 4.0 | 11.0 | 0.00 | 0.00 | 0.00 | 67 | 1020.5 |
| 20260904175543 | 56 | 360 | 4.0 | 10.0 | 0.00 | 0.00 | 0.00 | 66 | 1020.4 |
| 20260904175039 | 56 | 360 | 4.0 | 10.0 | 0.00 | 0.00 | 0.00 | 66 | 1020.4 |
| 20260904174559 | 56 | 360 | 5.0 | 10.0 | 0.00 | 0.00 | 0.00 | 66 | 1020.3 |
| 20260904174040 | 57 | 360 | 5.0 | 10.0 | 0.00 | 0.00 | 0.00 | 66 | 1020.2 |
| 20260904173540 | 57 | 360 | 5.0 | 11.0 | 0.00 | 0.00 | 0.00 | 66 | 1020.4 |
| 20260904173058 | 57 | 360 | 5.0 | 11.0 | 0.00 | 0.00 | 0.00 | 65 | 1020.2 |
| 20260904172541 | 57 | 360 | 6.0 | 13.0 | 0.00 | 0.00 | 0.00 | 65 | 1020.1 |
| 20260904172041 | 57 | 360 | 6.0 | 13.0 | 0.00 | 0.00 | 0.00 | 65 | 1020.1 |
| 20260904171616 | 57 | 360 | 4.0 | 11.0 | 0.00 | 0.00 | 0.00 | 64 | 1020.0 |
| 20260904171040 | 57 | 360 | 6.0 | 11.0 | 0.00 | 0.00 | 0.00 | 64 | 1020.1 |
| 20260904170542 | 57 | 360 | 6.0 | 11.0 | 0.00 | 0.00 | 0.00 | 63 | 1020.2 |
| 20260904165543 | 58 | 360 | 7.0 | 12.0 | 0.00 | 0.00 | 0.00 | 62 | 1020.0 |
| 20260904165040 | 58 | 360 | 6.0 | 13.0 | 0.00 | 0.00 | 0.00 | 62 | 1019.9 |
| 20260904164616 | 58 | 360 | 6.0 | 13.0 | 0.00 | 0.00 | 0.00 | 61 | 1020.0 |
| 20260904164041 | 58 | 360 | 6.0 | 11.0 | 0.00 | 0.00 | 0.00 | 60 | 1019.9 |
| 20260904163541 | 59 | 360 | 5.0 | 10.0 | 0.00 | 0.00 | 0.00 | 58 | 1019.9 |
| 20260904163053 | 59 | 360 | 4.0 | 11.0 | 0.00 | 0.00 | 0.00 | 57 | 1019.9 |
| 20260904162541 | 59 | 360 | 5.0 | 12.0 | 0.00 | 0.00 | 0.00 | 56 | 1020.0 |
| 20260904162042 | 60 | 360 | 6.0 | 12.0 | 0.00 | 0.00 | 0.00 | 55 | 1020.0 |
| 20260904161608 | 60 | 360 | 4.0 | 9.0 | 0.00 | 0.00 | 0.00 | 53 | 1019.9 |